Location: Tamazert
(32.6352°N, 5.2072°W)
Time: 03:32:45
(UTC+00:00)

Vanguard 1 Rocket - Pass Details

Date: 10 October 2022
Orbit: 650 x 4225 km, 34.3° (Epoch: 05 December)

Event Time Altitude Azimuth Distance (km) Brightness Sun altitude
Rises 14:47:25 0° 208° (SSW) 7,530 12.9 35.3°
Reaches altitude 10° 14:52:43 10° 201° (SSW) 6,860 12.8 34.4°
Maximum altitude 15:14:50 41° 139° (SE) 5,241 11.5 30.6°
Drops below altitude 10° 15:35:23 10° 79° (E) 6,516 11.3 26.9°
Sets 15:40:05 0° 72° (ENE) 7,154 11.4 26.0°
